Location: Ajisawe
(8.4333°N, 4.3833°E)
Time: 00:44:36
(UTC+00:00)

Courier 1B Rocket - Pass Details

Date: 01 May 2021
Orbit: 920 x 1202 km, 28.3° (Epoch: 13 May)

Event Time Altitude Azimuth Distance (km) Brightness Sun altitude
Rises 20:55:36 0° 302° (WNW) 3,629 8.8 -42.9°
Reaches altitude 10° 20:58:11 10° 304° (NW) 2,715 7.9 -43.5°
Enters shadow 21:00:27 23° 308° (NW) 1,947 7.0 -44.0°
Maximum altitude 21:04:45 71° 28° (NNE) 1,075 - -44.9°
Drops below altitude 10° 21:11:52 10° 112° (ESE) 2,921 - -46.4°
Sets 21:14:44 0° 114° (ESE) 3,921 - -47.0°
